This is the latest recevied weather packets stored in our database for station/object WA4IKQ. If no packets are shown the sender has not sent any weather packets the latest 10 day(s).
| Time | Temp. | Humidity | Pressure | Rain* | Wind** | Luminosity | Snow |
|---|---|---|---|---|---|---|---|
| 1777862082 | 21.11° C | 71% | 1017.1 hPa | 0 mm | 1.79 m/s, 15° | - | - |
| 1777861783 | 21.11° C | 71% | 1017.1 hPa | 0 mm | 1.79 m/s, 7° | - | - |
| 1777861566 | 21.11° C | 70% | 1017.1 hPa | 0 mm | 1.79 m/s, 359° | - | - |
| 1777861185 | 21.11° C | 70% | 1017.1 hPa | 0 mm | 1.79 m/s, 342° | - | - |
| 1777861181 | 21.11° C | 70% | 1017.1 hPa | 0 mm | 1.79 m/s, 359° | - | - |
| 1777860882 | 21.11° C | 70% | 1017.1 hPa | 0 mm | 1.79 m/s, 342° | - | - |
| 1777860796 | 21.11° C | 70% | 1017 hPa | 0 mm | 1.79 m/s, 352° | - | - |
| 1777860601 | 21.11° C | 69% | 1016.9 hPa | 0 mm | 1.79 m/s, 4° | - | - |
| 1777860582 | 21.11° C | 70% | 1017 hPa | 0 mm | 1.79 m/s, 352° | - | - |
| 1777860282 | 21.11° C | 69% | 1016.9 hPa | 0 mm | 1.79 m/s, 4° | - | - |
| 1777860152 | 21.11° C | 69% | 1017 hPa | 0 mm | 0.89 m/s, 311° | - | - |
| 1777859984 | 21.11° C | 69% | 1016.9 hPa | 0 mm | 0.89 m/s, 345° | - | - |
| 1777859931 | 21.11° C | 69% | 1016.9 hPa | 0 mm | 0.45 m/s, 55° | - | - |
| 1777859687 | 21.11° C | 68% | 1016.8 hPa | 0 mm | 0.45 m/s, 354° | - | - |
| 1777859686 | 21.11° C | 69% | 1017 hPa | 0 mm | 0.89 m/s, 311° | - | - |
| 1777859383 | 21.11° C | 69% | 1016.9 hPa | 0 mm | 0.45 m/s, 345° | - | - |
| 1777859081 | 21.11° C | 69% | 1016.9 hPa | 0 mm | 0.45 m/s, 55° | - | - |
| 1777858812 | 21.67° C | 68% | 1016.8 hPa | 0 mm | 1.34 m/s, 17° | - | - |
| 1777858781 | 21.11° C | 68% | 1016.8 hPa | 0 mm | 0.45 m/s, 354° | - | - |
| 1777858489 | 21.67° C | 68% | 1016.8 hPa | 0 mm | 1.34 m/s, 17° | - | - |
| 1777858385 | 21.67° C | 68% | 1016.8 hPa | 0 mm | 2.24 m/s, 37° | - | - |
| 1777858263 | 21.67° C | 68% | 1016.8 hPa | 0 mm | 1.79 m/s, 23° | - | - |
| 1777858185 | 21.67° C | 68% | 1016.8 hPa | 0 mm | 2.24 m/s, 37° | - | - |
| 1777857999 | 21.67° C | 68% | 1016.8 hPa | 0 mm | 1.34 m/s, 11° | - | - |
| 1777857881 | 21.67° C | 68% | 1016.8 hPa | 0 mm | 1.79 m/s, 23° | - | - |
* Rain latest hour (hover to see other rain measurements)
** Current wind speed in m/s (hover to see current wind gust speed)